TimeEST,TemperatureF,Dew PointF,Humidity,Sea Level PressureIn,VisibilityMPH,Wind Direction,Wind SpeedMPH,Gust SpeedMPH,PrecipitationIn,Events,Conditions,WindDirDegrees,DateUTC
12:53 AM,57.9,51.1,78,29.52,10.0,SSW,8.1,-,N/A,,Partly Cloudy,210,2012-03-03 05:53:00
1:53 AM,57.0,46.0,67,29.52,10.0,SW,11.5,17.3,N/A,,Mostly Cloudy,230,2012-03-03 06:53:00
2:53 AM,55.0,41.0,59,29.52,10.0,SW,10.4,17.3,N/A,,Overcast,230,2012-03-03 07:53:00
3:53 AM,52.0,39.9,63,29.56,10.0,West,11.5,21.9,N/A,,Mostly Cloudy,280,2012-03-03 08:53:00
4:53 AM,45.0,33.1,63,29.64,10.0,West,15.0,28.8,N/A,,Clear,270,2012-03-03 09:53:00
5:53 AM,42.1,30.9,65,29.69,10.0,Variable,5.8,19.6,N/A,,Partly Cloudy,0,2012-03-03 10:53:00
6:53 AM,39.9,28.9,65,29.71,10.0,Variable,4.6,-,N/A,,Clear,0,2012-03-03 11:53:00
7:53 AM,39.0,28.0,65,29.72,10.0,Variable,6.9,-,N/A,,Clear,0,2012-03-03 12:53:00
8:19 AM,39.2,28.4,65,29.71,10.0,WSW,9.2,-,N/A,,Mostly Cloudy,240,2012-03-03 13:19:00
8:35 AM,39.2,26.6,61,29.71,10.0,WSW,11.5,19.6,N/A,,Scattered Clouds,240,2012-03-03 13:35:00
8:53 AM,39.9,27.0,60,29.72,10.0,SW,11.5,23.0,N/A,,Scattered Clouds,230,2012-03-03 13:53:00
9:53 AM,41.0,26.1,55,29.72,10.0,SW,15.0,24.2,N/A,,Scattered Clouds,230,2012-03-03 14:53:00
10:53 AM,45.0,25.0,46,29.71,10.0,WSW,8.1,23.0,N/A,,Partly Cloudy,240,2012-03-03 15:53:00
11:53 AM,46.0,23.0,40,29.71,10.0,SW,17.3,26.5,N/A,,Clear,220,2012-03-03 16:53:00
12:53 PM,48.9,24.1,38,29.66,10.0,WSW,8.1,18.4,N/A,,Partly Cloudy,250,2012-03-03 17:53:00
1:53 PM,48.9,21.9,35,29.66,10.0,West,13.8,21.9,N/A,,Partly Cloudy,270,2012-03-03 18:53:00
2:53 PM,48.0,21.0,34,29.66,10.0,West,11.5,23.0,N/A,,Scattered Clouds,270,2012-03-03 19:53:00
3:53 PM,48.0,19.9,33,29.68,10.0,West,12.7,26.5,N/A,,Partly Cloudy,280,2012-03-03 20:53:00
4:53 PM,48.0,19.9,33,29.69,10.0,West,13.8,21.9,N/A,,Partly Cloudy,260,2012-03-03 21:53:00
5:53 PM,45.0,21.0,39,29.73,10.0,West,9.2,-,N/A,,Scattered Clouds,280,2012-03-03 22:53:00
6:53 PM,44.1,21.9,42,29.76,10.0,West,9.2,-,N/A,,Scattered Clouds,270,2012-03-03 23:53:00
7:53 PM,43.0,21.9,43,29.77,10.0,WNW,4.6,-,N/A,,Scattered Clouds,290,2012-03-04 00:53:00
8:53 PM,39.9,24.1,53,29.79,10.0,WNW,8.1,-,N/A,,Mostly Cloudy,300,2012-03-04 01:53:00
9:53 PM,37.9,24.1,57,29.81,10.0,Variable,4.6,-,N/A,,Overcast,0,2012-03-04 02:53:00
10:53 PM,36.0,21.9,57,29.83,10.0,NNW,3.5,-,N/A,,Overcast,340,2012-03-04 03:53:00
11:53 PM,36.0,19.9,52,29.82,10.0,WNW,4.6,-,N/A,,Overcast,300,2012-03-04 04:53:00